CZ-6A R/B, 58200

Orbit data source: Space-Track

CZ-6A R/B, 58200 is space debris in SSO originally from a launch on Tue, 31 Oct 2023 UTC launched from the Taiyaun Space Center, China (TSC). Debris objects in space refer to the collection of defunct objects orbiting the Earth. Examples of debris include non-operational satellites, rocket bodies, and fragments generated from explosions, collisions, or faulty payload assembly.

Loading next visibility...
Identifier
58200, 2023-168B
Orbit
SSO
Country
Flag of CNCN / PRC
Related business
Manufacturer
SAST
Mission
Spacecraft
Bus & Motor
CZ-6A STAGE 2, YF-115
Mass
~6,000 kg wet, ~6,000 kg dry
Launch date (UTC)
2023-10-31 (3 years ago)
Launch vehicle
Unknown
Launch site
Taiyaun Space Center, China (TSC)
Object type
Payload
Rocket body
Debris
Shape & HBR
Unknown shape, 5.5 m
Radar Cross Section
Large (>1 m²)

Expand to show TLE details & history
Last TLE update: 2 days ago

TLE from 2 days ago
0 CZ-6A R/B
1 58200U 23168B   26171.41812481  .00002731  00000-0  13590-3 0  9995
2 58200  97.7406 209.4922 0059781 345.6696  14.2838 15.16968903145337
Epoch: 2026-06-20T10:02Z
TLE epoch observation values (Epoch: 2026-06-20T10:02:05.983Z)
Latitude
-0.00005°
Longitude
150.33424°
Altitude
478.157 km
Speed
7.649 km/s
True Right ascension
13h 57m 58s
True Declination
0° 00' 00"
Sunlit
Object was in full shadow at epoch
Visualization orbit readout
Latitude
Unknown
Longitude
Unknown
Altitude
Unknown
Speed
Unknown
Apparent Right ascension
Unknown
Apparent Declination
Unknown
Sunlit
N/A
Visualization observer readout
Local Sidereal Time
21:40:26
Azimuth
Unknown
Elevation
Unknown
Doppler factor
Unknown
Orbital elements
Apogee altitude
553.182 km
Perigee altitude
470.802 km
Semi-major axis
6,890.129 km
Eccentricity
0.00598
Inclination
97.7406°
RAAN
209.4922°
Arg. of periapsis
345.6696°
True anomaly
14.45405°
Mean anomaly
14.2838°
Eccentric anomaly
14.3688°
Mean motion
3.79492 °/min
Orbital period
94.86 mins
BSTAR
0.0001359
Loading maneuver chart data...
Computing Atmospheric mass density...
Loading historical data...
Loading historical data...
Loading historical data...
Loading historical data...
Loading historical data...
Loading historical data...
Loading historical data...
Other satellites on launch #168 in the year 2023 (2023-10-31 UTC)

Documentation

Showing up to 5 results
|